Regional Weather Roundup
Issued by NWS

Home | Current Version | Previous Version | Graphics & Text | Print | Product List | Glossary On
Versions: 1 2 3 4 5 6 7 8 9 10 11 12 13 14 15 16 17 18 19 20 21 22 23 24 25 26 27 28 29 30 31 32 33 34 35 36 37 38 39 40 41 42 43 44 45 46 47 48 49 50
249
ASUS43 KLMK 181510
RWRKY
KENTUCKY REGIONAL WEATHER ROUNDUP
NATIONAL WEATHER SERVICE LOUISVILLE KY
1000 AM EST SUN FEB 18 2018

NOTE "FAIR" INDICATES FEW OR NO CLOUDS BELOW 12,000 FEET
WITH NO SIGNIFICANT WEATHER AND/OR OBSTRUCTIONS TO VISIBILITY.

KYZ001>023-026-027-061>063-070>075-181600-
WESTERN AND SOUTH CENTRAL KENTUCKY

CITY           SKY/WX    TMP DP  RH WIND       PRES   REMARKS
PADUCAH        FAIR      37  34  89 E14       30.30F WCI  28
HENDERSON      FAIR      39  36  89 E7        30.32F WCI  34
OWENSBORO      FAIR      42  35  76 E8        30.33F
HOPKINSVILLE   FAIR      38  38 100 E9        30.33S WCI  32
BOWLING GREEN  FAIR      41  35  79 E8        30.36R
GLASGOW        FAIR      40  37  87 E6        30.35R
$$

KYZ024-025-028>034-038-045-046-053-181600-
NORTH CENTRAL KENTUCKY

CITY           SKY/WX    TMP DP  RH WIND       PRES   REMARKS
LOUISVILLE/SDF FAIR      39  32  76 VRB3      30.37R
LOUISVILLE/LOU FAIR      39  33  79 E3        30.37S
FORT KNOX      FAIR      38  33  80 E3        30.36R
$$

KYZ035>037-039>044-047>052-055>060-089>105-181600-
NORTHEAST KENTUCKY

CITY           SKY/WX    TMP DP  RH WIND       PRES   REMARKS
LEXINGTON      FAIR      39  32  76 NE6       30.36S WCI  35
COVINGTON      PTSUNNY   35  30  82 SE8       30.36S WCI  29
FRANKFORT      FAIR      37  31  78 E5        30.35S WCI  33
$$

KYZ054-064>069-076>088-106>120-181600-
SOUTHEAST KENTUCKY

CITY           SKY/WX    TMP DP  RH WIND       PRES   REMARKS
JACKSON        FAIR      40  31  70 CALM      30.36R
LONDON         PTSUNNY   39  33  79 E9        30.36S WCI  33
SOMERSET       FAIR      37  32  81 E5        30.38R WCI  34
MIDDLESBORO    FAIR      42  34  72 CALM      30.36F
MONTICELLO     NOT AVBL
$$





USA.gov is the U.S. government's official web portal to all federal, state and local government web resources and services.